GFSNIL_925_temp_084.txt.gz
Temp
16 15 14 13 13 13 13 12 13 12 12 11 11 11 12 12 12 13 14 14 15 15
15 15 14 13 14 14 14 13 12 12 12 12 12 11 12 13 13 13 13 14 14 15
14 15 15 15 14 14 13 12 12 12 12 12 12 11 12 12 11 12 13 13 13 13
13 14 14 14 14 14 13 12 12 12 12 11 11 12 12 12 11 11 11 12 13 13
14 13 13 13 14 14 14 13 13 12 12 12 11 11 11 11 11 12 12 12 12 12
13 12 12 12 13 13 13 13 13 12 12 12 12 11 11 11 11 12 12 12 12 12
12 12 12 11 13 12 12 12 13 12 12 12 12 12 11 11 11 11 11 11 11 12
10 11 11 11 12 13 13 13 13 13 12 12 12 11 11 12 12 12 12 12 12 12
6 7 8 9 9 10 10 11 11 11 11 10 9 10 11 12 12 12 12 12 12 12
4 4 4 5 5 4 4 5 5 5 5 5 5 6 8 10 10 9 9 9 9 9
2 2 2 2 1 0 0 -0 -0 -0 0 1 2 5 7 7 6 5 3 3 3 3
1 1 0 -0 -1 -1 -1 -2 -3 -2 -2 -2 -1 1 3 4 1 -1 -2 -2 -1 -0
-1 -0 -0 -1 -1 -2 -2 -3 -3 -4 -3 -3 -3 -2 -0 -0 -1 -3 -4 -4 -4 -4
-1 -1 -1 -1 -1 -1 -1 -2 -2 -3 -4 -4 -4 -4 -3 -2 -2 -3 -4 -5 -5 -6

GFSNIL_925_temp_087.txt.gz
Temp
18 18 18 16 14 13 13 12 12 12 12 12 12 12 12 13 13 13 15 16 16 16
17 17 17 16 14 14 13 13 12 12 11 12 12 12 12 12 12 13 14 15 15 16
17 16 17 16 16 15 14 13 12 12 12 11 11 11 11 12 12 13 13 14 14 15
16 15 15 15 15 15 15 15 14 12 12 12 12 12 11 11 11 12 12 12 12 13
15 15 15 15 15 15 15 14 13 13 12 12 11 11 11 11 11 11 11 11 12 12
14 14 14 14 14 14 14 14 14 13 12 12 11 11 11 11 11 11 11 12 12 12
14 14 13 13 13 14 13 13 13 13 13 12 12 11 11 11 11 11 11 12 12 12
11 12 12 11 11 12 12 12 12 12 12 12 11 11 11 11 11 11 11 12 11 12
7 8 8 9 9 9 9 9 10 9 9 7 7 8 11 11 11 11 11 11 11 10
4 4 4 4 5 5 5 6 5 4 4 4 5 6 8 10 9 9 8 8 8 8
2 1 1 1 0 1 1 1 1 1 1 2 2 3 5 7 6 4 3 2 3 3
0 -0 -1 -1 -1 -2 -1 -2 -2 -2 -1 -1 -1 -0 1 3 1 -0 -2 -2 -1 -0
-1 -1 -1 -1 -2 -2 -2 -2 -3 -3 -3 -3 -3 -2 -1 -1 -2 -3 -4 -4 -4 -4
-1 -1 -1 -0 -1 -1 -1 -2 -2 -2 -3 -4 -4 -3 -2 -2 -2 -3 -4 -5 -5 -5

GFSNIL_925_temp_093.txt.gz
Temp
19 19 18 17 17 16 15 16 14 13 13 13 13 14 13 14 13 13 13 13 13 14
19 19 18 17 17 16 15 14 12 13 12 12 12 13 13 13 13 13 13 13 13 13
19 19 17 17 16 15 15 13 12 12 12 12 12 12 13 13 13 13 13 13 13 13
18 18 17 16 15 14 14 13 13 12 11 12 12 12 12 13 12 12 12 12 12 12
17 17 16 17 16 15 14 13 13 12 12 12 12 12 12 12 12 12 12 12 12 12
16 16 16 15 15 15 15 14 14 12 12 12 12 11 12 12 12 12 12 12 12 12
15 15 14 14 14 14 14 14 13 12 12 12 11 11 11 11 11 11 11 11 11 11
12 12 13 13 13 13 13 12 12 12 11 11 11 11 11 11 11 11 11 10 10 10
10 11 10 10 9 10 10 9 9 9 9 9 9 10 11 11 10 10 10 10 9 9
3 5 6 6 5 6 5 5 5 5 6 6 6 7 10 10 9 9 7 7 6 6
0 -0 1 2 1 1 1 1 1 1 1 2 2 4 6 7 5 4 3 3 3 3
-1 -1 -1 -2 -2 -2 -2 -2 -2 -2 -1 -2 -1 0 1 3 1 -0 -1 -0 0 1
-1 -1 -2 -2 -3 -3 -3 -3 -3 -3 -3 -2 -3 -2 -2 -2 -2 -3 -3 -3 -3 -2
-2 -2 -2 -2 -3 -3 -4 -4 -4 -4 -4 -4 -4 -3 -3 -3 -4 -4 -5 -4 -4 -4

GFSNIL_925_temp_096.txt.gz
Temp
16 17 17 16 15 15 14 14 15 15 15 15 14 14 14 14 14 13 13 13 13 13
17 17 17 16 16 16 16 14 14 15 15 14 13 13 13 13 13 13 13 13 13 13
17 18 18 17 16 16 15 15 14 15 13 12 11 12 12 13 13 13 13 13 13 13
17 17 17 17 16 16 15 15 14 13 12 11 12 11 12 12 13 13 13 13 13 13
16 17 17 16 15 15 15 14 13 12 12 11 11 11 12 12 12 13 13 13 13 12
14 15 15 15 15 14 14 14 13 12 11 11 11 11 12 12 12 12 12 12 12 12
14 14 14 14 14 14 13 13 13 12 12 12 11 11 11 12 11 11 12 12 12 12
12 13 13 13 13 13 13 12 12 12 11 11 11 11 11 11 11 11 11 11 11 11
7 9 9 10 11 10 10 10 10 10 9 9 9 10 11 11 10 10 10 10 10 10
2 3 3 4 6 6 5 6 5 6 6 6 6 7 9 10 10 9 8 8 7 7
-1 -1 -0 0 -0 1 2 2 1 1 1 2 1 3 4 7 7 6 4 4 4 5
-1 -2 -2 -1 -2 -2 -2 -2 -2 -1 -1 -1 -2 -0 1 2 2 1 0 1 1 2
-2 -2 -1 -2 -3 -4 -4 -4 -3 -3 -3 -3 -3 -2 -1 -1 -2 -2 -3 -3 -2 -1
-3 -3 -3 -3 -3 -3 -4 -4 -4 -4 -4 -4 -4 -4 -2 -2 -3 -4 -4 -4 -4 -3

GFSNIL_925_temp_099.txt.gz
Temp
16 16 16 16 15 14 15 14 16 16 15 14 14 14 14 15 14 14 13 13 13 13
15 15 15 15 16 15 15 14 14 14 13 14 14 14 14 14 14 13 13 13 13 13
14 15 15 15 15 15 15 14 14 13 14 14 13 13 14 13 13 13 13 13 13 13
14 14 15 15 15 15 15 15 14 14 13 13 13 12 12 12 12 12 12 13 13 13
14 14 14 14 15 15 14 14 15 13 12 12 12 11 11 11 12 12 12 13 13 13
15 13 13 14 14 14 14 14 14 13 12 12 11 11 11 12 12 12 12 12 13 13
13 13 13 14 14 14 13 13 13 12 12 11 11 11 11 11 11 12 12 12 12 13
10 12 13 13 13 13 12 12 12 12 11 11 11 11 11 11 11 11 10 11 12 12
4 7 8 8 9 10 11 10 11 10 10 9 9 10 11 11 10 10 10 9 9 9
-0 0 2 3 5 4 5 6 6 5 6 6 7 8 10 10 10 9 7 6 7 7
0 -1 -2 -1 -1 -0 1 0 -0 1 1 1 1 4 7 8 6 5 4 4 3 4
-0 -0 -2 -2 -3 -2 -2 -2 -3 -2 -1 -1 -1 1 3 5 3 1 -0 0 1 1
-3 -2 -3 -3 -3 -2 -3 -4 -3 -4 -3 -3 -3 -1 -0 0 -1 -2 -3 -3 -2 -2
-4 -4 -4 -4 -4 -4 -4 -4 -4 -4 -4 -4 -4 -4 -2 -2 -2 -3 -4 -4 -4 -4

GFSNIL_925_temp_102.txt.gz
Temp
16 16 15 15 15 15 15 15 15 16 16 16 16 15 15 15 14 13 13 13 13 14
16 15 15 15 15 15 15 14 16 16 16 16 16 14 15 13 12 13 13 13 13 13
15 15 15 15 14 14 14 14 15 15 15 15 14 14 13 13 13 13 13 13 13 13
14 14 14 14 14 14 14 14 14 14 14 13 13 13 13 13 12 12 13 13 13 13
14 14 14 13 13 13 14 14 14 13 13 13 12 12 12 12 12 12 12 12 12 12
13 14 14 14 13 13 13 13 13 13 13 12 12 11 11 12 12 12 12 12 12 12
9 13 13 13 14 13 13 14 13 13 12 12 11 11 11 11 11 11 11 11 11 12
4 8 10 12 13 12 12 12 12 12 11 11 11 11 11 11 11 10 10 10 10 10
1 1 3 5 9 10 10 10 10 10 9 9 9 11 11 10 10 9 8 8 7 7
2 -0 -0 -0 2 3 3 5 4 5 5 5 6 8 9 10 9 8 6 5 5 5
-1 -0 1 -1 -2 -1 -1 -1 -1 -1 0 1 1 3 5 8 7 5 4 3 3 3
-2 -2 -2 -2 -3 -3 -2 -3 -3 -3 -2 -2 -2 0 1 3 3 1 -0 -0 1 1
-4 -4 -3 -3 -4 -4 -3 -4 -3 -3 -3 -3 -3 -2 -1 -0 -1 -2 -3 -3 -3 -2
-5 -4 -4 -4 -4 -4 -4 -4 -4 -5 -5 -4 -4 -4 -3 -2 -3 -4 -4 -4 -4 -5

GFSNIL_925_temp_105.txt.gz
Temp
17 16 17 17 17 16 15 15 15 15 15 16 15 14 15 14 14 14 14 13 13 13
17 16 16 16 16 16 15 15 15 15 15 15 15 15 14 14 14 13 14 13 13 13
17 16 15 15 15 15 15 15 14 14 14 14 15 14 15 14 14 14 14 13 13 13
15 15 14 14 14 14 14 14 14 14 14 14 14 14 14 14 14 13 13 13 13 13
14 14 14 14 14 14 13 13 13 13 14 14 14 14 14 14 13 13 12 13 13 13
9 12 13 13 13 13 13 13 13 14 14 13 13 13 13 12 12 12 12 12 12 12
3 6 10 13 13 13 13 13 12 12 12 13 13 12 12 12 11 11 11 11 11 11
2 3 6 9 11 12 12 12 12 12 12 12 11 11 11 11 11 11 11 10 10 10
0 1 1 2 3 4 8 9 9 10 10 10 9 10 11 11 11 10 9 8 7 7
-1 -0 0 -0 -0 -0 1 2 3 4 6 5 5 7 9 9 9 8 6 6 4 5
-2 -1 -1 1 -1 -2 -1 -1 -1 -0 0 0 0 3 4 5 5 4 2 2 2 2
-4 -3 -3 -2 -2 -2 -3 -3 -3 -2 -2 -2 -2 -1 1 1 0 -1 -1 -1 -1 0
-5 -4 -4 -4 -4 -3 -3 -4 -4 -5 -4 -4 -3 -1 -0 -1 -3 -3 -4 -4 -4 -3
-5 -5 -4 -4 -4 -4 -4 -4 -5 -6 -6 -5 -5 -5 -3 -2 -2 -4 -5 -5 -5 -5